Wind_Speed
37 37 37 38 40 40 37 31 28 28 30 33 36 37 36 35 34 33 31 30 29 28 27 26 26 24 23 22 20 18 16 15 13 12 11 11 10 8 7 7 6 6 7 7 8 9 10 11 11
40 40 40 41 43 42 36 30 29 30 34 37 38 38 37 37 35 33 32 32 31 30 29 28 27 26 25 23 22 20 18 16 15 14 13 12 11 10 9 8 8 8 8 8 9 10 11 11 12
43 43 44 45 45 41 35 32 31 34 37 39 39 39 39 37 36 35 34 33 32 31 30 29 29 27 26 25 24 22 20 18 17 15 14 14 13 11 10 10 9 9 9 9 10 11 11 11 12
46 47 48 48 45 40 36 34 35 37 39 40 41 41 40 38 37 36 36 35 34 33 32 31 30 29 28 27 25 24 22 20 18 17 16 15 14 13 12 11 11 10 10 10 11 11 12 12 13
49 50 51 50 46 41 38 38 38 40 41 42 43 43 41 39 39 38 38 37 35 34 33 32 31 30 29 28 27 25 23 22 20 18 18 17 16 14 13 12 12 11 11 11 12 12 12 13 13
52 53 54 52 47 44 42 41 42 43 43 44 44 44 43 41 41 40 39 38 37 36 35 34 33 32 31 29 28 26 25 24 22 20 19 18 17 16 14 13 13 13 12 12 12 12 13 13 14
53 55 55 52 49 47 43 43 44 45 45 45 46 46 45 43 43 42 41 40 39 38 37 35 34 33 32 31 29 28 27 25 23 22 20 19 18 17 16 15 14 14 13 13 13 13 13 14 14
54 56 56 53 50 48 46 46 46 48 47 47 49 48 46 44 44 44 43 42 41 40 38 37 35 34 34 32 31 29 28 26 25 23 22 21 20 18 17 16 15 15 14 14 14 14 14 14 15
54 57 57 52 51 50 49 49 49 50 50 50 50 49 48 46 46 45 44 43 42 41 40 38 37 36 35 34 33 31 29 28 26 25 23 22 21 20 18 17 16 16 15 15 15 15 15 15 16
54 58 54 52 52 52 51 51 51 53 52 52 52 51 50 48 47 46 45 44 43 42 41 40 39 38 37 36 35 33 31 29 27 26 25 23 22 21 20 19 18 17 16 16 16 16 16 16 17
53 55 52 52 53 53 52 53 53 54 53 52 52 52 51 50 49 48 47 45 44 43 42 42 40 39 39 37 36 35 33 31 29 27 26 25 24 23 21 20 19 18 17 17 17 17 17 18 19
51 52 52 52 53 53 53 54 55 55 53 53 54 54 54 52 51 49 48 47 45 44 43 43 42 41 40 39 38 36 34 32 30 29 27 26 25 24 23 22 20 19 19 18 18 18 18 19 20
50 50 51 52 53 53 53 55 55 56 54 54 55 55 54 54 53 51 50 49 47 45 44 44 43 42 41 40 39 38 36 34 32 30 29 28 26 25 24 23 21 21 20 19 19 19 19 20 21
46 48 49 50 52 52 54 55 55 55 54 54 55 55 55 55 54 53 52 50 48 46 45 45 44 43 42 41 40 39 37 36 34 32 30 29 28 26 25 24 22 22 21 21 20 20 20 21 22
43 46 46 48 49 50 53 56 54 51 54 55 55 55 55 56 55 54 53 51 49 48 46 45 44 44 42 41 41 40 38 37 35 33 32 30 29 27 26 24 24 23 22 22 22 21 21 22 23
40 43 44 44 44 47 51 54 51 51 54 55 55 56 56 56 56 55 53 52 51 49 48 46 45 44 43 42 41 40 39 38 36 35 33 32 30 28 27 25 25 24 23 23 23 22 23 23 24
37 40 40 40 42 44 49 50 48 51 54 54 54 56 56 56 56 55 54 52 52 50 48 47 46 45 44 43 42 41 40 38 37 36 35 33 31 30 28 27 26 25 24 24 23 23 24 24 25
34 37 38 39 39 43 46 47 47 49 53 54 54 54 57 57 55 55 54 53 52 51 50 48 47 46 45 44 43 41 40 39 38 37 35 34 33 31 30 28 27 26 25 25 25 25 25 25 26
30 34 37 37 38 42 44 45 46 48 51 52 53 53 55 56 55 56 56 55 54 53 51 50 48 46 46 45 43 42 40 39 39 37 36 35 34 33 31 29 28 27 26 26 26 26 26 26 27
27 31 33 34 37 41 44 44 43 46 48 50 51 52 54 55 56 55 55 55 55 54 52 50 48 47 46 45 44 43 41 40 39 38 37 36 35 34 32 30 29 28 28 27 27 27 27 27 27
25 26 29 31 34 37 41 42 41 43 47 49 50 51 53 54 55 55 55 56 55 54 53 51 49 48 47 46 45 44 42 41 39 38 37 36 35 34 33 32 30 29 29 28 28 28 28 28 28
25 24 26 28 31 32 37 41 40 40 43 46 48 49 50 53 53 54 55 56 55 54 53 52 50 49 48 47 45 44 42 40 39 38 37 36 35 35 34 33 32 31 30 29 29 29 29 29 29
23 24 25 25 27 29 32 38 38 37 40 43 46 47 48 51 52 54 54 54 54 54 54 53 52 50 49 48 46 44 43 41 40 38 37 36 36 35 34 33 32 32 30 30 30 30 30 30 30
21 22 24 25 26 27 27 32 34 35 36 39 42 45 46 49 51 52 54 54 55 55 55 55 53 51 49 48 46 45 43 42 40 39 38 37 36 35 34 33 33 32 31 31 31 31 31 31 31
20 20 22 24 25 26 25 29 31 31 33 35 39 43 45 48 50 52 53 54 56 56 55 55 54 52 50 49 47 46 44 42 41 40 39 37 36 35 35 34 33 33 32 32 32 31 31 32 32
20 20 21 23 24 24 24 25 27 29 31 33 36 40 44 47 50 51 52 53 54 55 55 55 55 52 51 50 48 46 45 43 42 41 39 38 37 36 35 35 34 33 33 33 32 32 32 33 33
21 21 21 23 24 25 23 22 23 27 29 31 35 39 42 45 48 50 51 52 53 54 54 53 54 52 51 51 49 47 45 44 42 41 40 39 37 37 36 35 35 34 34 33 33 33 34 34 34
21 21 22 23 24 25 24 22 22 24 27 29 32 36 39 43 46 48 50 50 53 54 53 53 54 53 51 50 50 48 46 44 43 42 41 39 38 38 37 36 36 35 35 34 34 35 35 34 35
21 22 22 23 25 25 25 23 22 23 26 28 30 33 37 41 44 47 49 50 52 54 55 54 53 54 52 51 50 48 47 46 44 43 41 40 39 38 37 37 37 36 36 35 35 36 36 36 36
22 23 24 25 26 27 27 24 23 24 26 27 28 31 34 38 42 45 47 49 52 53 54 54 53 53 52 52 51 49 48 47 45 43 42 41 40 39 38 38 37 37 36 36 36 36 36 36 36
Wind_Direction
269 266 264 261 259 257 256 255 250 245 243 240 239 240 240 240 238 237 235 230 229 230 229 229 228 227 227 226 226 227 228 229 231 233 233 232 234 240 248 256 266 277 291 299 304 308 309 312 314
267 265 263 261 259 259 258 255 249 244 241 239 239 239 239 238 238 236 235 232 229 228 228 228 227 227 227 227 227 228 228 230 231 234 234 234 235 239 246 253 262 273 286 294 300 304 305 309 312
265 263 261 261 260 260 260 253 246 242 241 239 239 239 239 238 237 235 234 233 230 228 228 228 227 226 226 227 227 227 228 229 230 233 235 236 236 240 244 251 261 271 282 289 296 300 303 307 309
264 261 260 260 261 260 257 251 245 242 241 240 239 238 238 237 236 235 233 232 230 228 227 227 227 226 226 226 227 227 228 228 230 232 235 236 237 240 245 251 260 270 279 287 292 296 300 303 308
263 261 259 260 260 258 254 250 245 242 241 240 239 238 237 235 234 233 232 231 229 228 227 226 226 227 226 226 226 227 227 228 230 232 234 236 237 240 245 252 259 267 276 284 289 292 296 301 306
262 260 259 260 259 256 252 248 245 242 241 240 239 238 236 234 233 232 231 230 228 228 227 226 226 226 226 226 226 227 227 228 230 232 235 236 238 240 245 251 257 265 273 281 286 289 294 298 304
262 261 260 259 258 255 251 246 244 241 239 238 238 237 235 233 232 231 229 229 227 227 226 225 225 225 225 225 226 226 227 229 231 232 234 235 237 240 245 250 256 264 272 279 284 286 291 295 301
261 260 259 258 257 254 250 245 242 240 238 236 237 236 234 232 231 230 228 228 227 226 226 225 224 225 225 225 225 226 227 229 231 233 234 234 236 240 245 249 255 263 271 277 281 284 288 293 300
261 259 259 257 255 253 249 244 240 238 236 235 235 235 233 231 230 229 228 228 227 226 226 225 224 224 225 225 225 226 227 229 231 233 233 234 236 239 243 248 254 263 270 275 279 283 286 291 298
259 259 259 255 252 250 247 244 239 237 235 234 233 233 232 231 229 228 227 227 227 226 225 225 225 225 225 225 225 226 227 228 231 232 233 234 236 239 243 248 254 261 268 273 279 283 285 291 297
258 259 257 252 250 248 245 242 238 236 234 233 232 231 230 229 228 227 226 226 226 225 225 225 225 225 224 224 225 226 227 228 229 230 232 234 237 239 243 247 253 260 266 272 278 282 285 290 295
257 256 253 250 248 245 243 241 237 235 234 231 230 229 228 227 226 226 225 225 224 225 225 224 225 225 224 223 225 226 227 227 228 230 233 234 237 239 243 247 252 259 265 271 277 282 286 289 294
257 254 252 249 246 245 242 239 237 234 232 230 229 228 227 226 225 225 224 224 224 224 224 224 224 225 224 223 224 225 226 227 228 230 232 234 236 239 242 247 252 258 264 270 276 282 286 289 293
257 253 250 247 245 243 241 238 235 233 231 230 228 227 226 225 225 224 223 223 223 223 224 224 224 224 224 224 224 225 225 226 228 229 232 234 236 239 243 247 253 258 264 269 274 281 286 290 293
258 254 250 246 244 242 240 237 233 232 230 229 227 225 224 224 224 223 223 222 222 223 224 223 223 223 223 224 224 224 225 225 227 229 231 233 236 239 243 247 253 258 264 269 274 280 285 290 293
257 254 251 246 242 239 239 238 231 230 229 228 226 224 223 222 223 223 222 222 221 222 223 222 222 222 223 223 224 224 224 225 228 230 231 233 236 239 243 247 252 258 264 269 273 279 284 289 292
257 254 249 244 240 239 237 237 231 230 229 227 225 224 222 221 221 222 221 221 220 221 222 222 221 222 222 222 223 224 224 226 228 230 231 233 236 239 243 247 252 258 264 268 272 278 283 288 291
260 254 249 244 241 239 236 235 231 230 229 227 225 223 222 221 220 221 221 220 220 220 220 221 220 221 221 221 223 224 224 226 228 230 231 233 236 239 243 248 252 258 263 267 271 277 282 286 290
264 256 250 246 242 241 236 233 230 228 228 226 224 223 222 221 219 219 219 219 219 220 220 220 220 220 221 222 223 224 225 226 228 230 232 234 236 239 244 247 252 257 262 265 270 276 281 286 289
266 258 252 248 243 243 239 233 228 226 226 225 223 222 222 221 220 219 218 218 218 219 220 220 220 220 221 222 223 223 224 225 227 229 231 233 236 239 243 247 251 257 261 265 269 275 280 284 288
266 261 255 252 244 243 241 235 227 224 225 223 222 222 221 220 219 219 217 218 218 219 219 220 220 220 221 221 222 223 224 226 227 229 231 233 236 239 243 247 251 256 260 264 269 274 278 283 287
267 262 257 253 250 246 242 239 227 225 225 223 222 221 220 219 218 218 218 218 218 217 219 220 219 220 220 221 222 223 224 225 226 228 231 234 237 240 243 247 251 255 258 263 268 274 278 282 286
269 264 258 255 251 248 244 243 230 228 226 223 222 221 221 220 218 217 217 217 217 217 217 218 219 220 220 220 221 222 223 224 226 228 231 234 237 240 244 247 250 254 258 262 268 273 277 281 284
268 265 261 255 249 246 244 245 234 228 227 225 223 221 221 220 219 218 217 216 217 216 216 217 218 218 219 220 221 222 223 225 227 228 232 235 238 241 244 246 250 253 258 262 266 271 276 279 282
270 268 265 258 249 247 246 246 236 228 227 227 225 222 221 221 219 219 218 216 216 217 217 217 217 218 219 220 220 222 223 225 227 229 232 235 238 241 244 247 250 254 258 261 265 270 274 278 282
271 268 264 262 257 251 248 246 236 231 229 229 227 225 223 221 220 219 219 218 217 218 219 218 217 217 218 219 220 222 223 225 227 229 232 235 239 241 244 246 249 253 256 260 265 269 273 277 282
271 266 262 263 262 258 251 244 236 234 232 230 229 227 224 223 221 221 220 220 217 217 218 219 218 217 218 219 220 221 222 225 227 228 231 234 237 240 243 246 249 252 256 260 264 268 272 277 282
269 265 260 258 262 261 254 245 241 235 234 231 230 229 227 225 223 222 220 220 218 217 217 218 219 219 219 219 220 221 222 224 227 228 231 233 236 240 243 246 249 253 256 260 263 267 272 277 281
267 261 260 260 260 259 255 248 243 237 234 233 231 230 229 225 224 222 221 220 219 217 217 217 218 218 220 220 220 222 223 225 227 229 231 234 236 239 242 245 249 252 256 259 263 268 272 276 280
268 260 256 258 257 257 256 249 245 244 236 232 230 231 229 225 223 222 221 220 219 218 217 217 217 219 220 221 221 222 224 226 227 229 231 234 237 239 242 244 248 252 256 260 264 268 272 276 279
Height
5795 5796 5796 5797 5798 5799 5803 5809 5813 5815 5815 5815 5816 5817 5821 5824 5828 5834 5836 5838 5840 5843 5846 5848 5851 5853 5855 5857 5859 5861 5863 5864 5866 5867 5868 5869 5870 5870 5871 5872 5873 5873 5873 5873 5873 5873 5872 5872 5871
5787 5788 5788 5788 5789 5791 5798 5804 5807 5808 5807 5807 5809 5812 5815 5818 5822 5827 5830 5833 5835 5839 5841 5844 5847 5849 5851 5854 5856 5858 5860 5861 5863 5864 5865 5867 5868 5869 5869 5870 5871 5871 5872 5872 5872 5871 5871 5870 5870
5777 5777 5778 5778 5780 5785 5792 5798 5799 5799 5799 5800 5803 5805 5808 5813 5817 5821 5824 5827 5831 5834 5837 5839 5842 5845 5847 5850 5852 5854 5856 5858 5860 5861 5863 5864 5865 5866 5867 5868 5869 5869 5870 5870 5869 5869 5869 5868 5868
5766 5767 5767 5769 5772 5780 5784 5788 5790 5790 5792 5793 5795 5798 5802 5808 5811 5815 5818 5822 5825 5829 5832 5835 5838 5840 5843 5846 5848 5850 5853 5855 5857 5858 5860 5861 5863 5864 5865 5866 5866 5867 5867 5867 5867 5867 5867 5866 5865
5754 5754 5755 5757 5764 5771 5775 5778 5780 5782 5784 5786 5788 5791 5796 5800 5804 5807 5812 5816 5819 5823 5826 5830 5833 5836 5839 5841 5844 5847 5849 5851 5853 5855 5857 5858 5860 5861 5862 5863 5864 5865 5865 5865 5865 5865 5864 5864 5863
5741 5742 5743 5746 5754 5761 5765 5768 5770 5772 5775 5777 5779 5783 5788 5793 5796 5800 5805 5809 5813 5817 5821 5824 5827 5831 5834 5837 5840 5842 5845 5847 5849 5851 5853 5855 5857 5858 5859 5860 5861 5862 5862 5862 5862 5862 5862 5861 5861
5728 5728 5730 5737 5743 5748 5754 5756 5759 5762 5765 5768 5770 5774 5780 5785 5788 5793 5797 5802 5806 5810 5814 5818 5822 5825 5829 5832 5835 5838 5841 5843 5845 5847 5850 5851 5853 5855 5856 5857 5858 5859 5860 5860 5860 5859 5859 5859 5858
5713 5714 5717 5724 5730 5736 5742 5744 5747 5750 5754 5758 5760 5765 5772 5776 5780 5784 5789 5794 5799 5804 5808 5812 5816 5820 5823 5827 5830 5833 5836 5839 5841 5844 5846 5848 5850 5851 5853 5854 5855 5856 5856 5857 5857 5856 5856 5856 5855
5698 5699 5703 5713 5718 5723 5727 5731 5734 5737 5742 5746 5750 5755 5761 5766 5771 5776 5781 5786 5792 5797 5802 5806 5810 5814 5818 5821 5825 5828 5831 5834 5837 5839 5842 5844 5846 5848 5849 5851 5852 5853 5853 5853 5853 5853 5853 5853 5852
5682 5684 5693 5701 5703 5707 5712 5716 5720 5724 5729 5735 5740 5745 5750 5756 5762 5768 5773 5779 5785 5790 5795 5799 5804 5808 5812 5816 5819 5823 5826 5830 5833 5835 5837 5840 5842 5844 5845 5847 5848 5849 5850 5850 5850 5850 5850 5849 5848
5667 5671 5679 5683 5686 5690 5695 5700 5705 5710 5717 5724 5729 5734 5739 5746 5752 5759 5765 5771 5777 5782 5787 5792 5797 5801 5805 5809 5814 5817 5821 5825 5828 5830 5833 5835 5837 5840 5841 5843 5844 5845 5846 5846 5846 5846 5846 5845 5845
5653 5657 5661 5666 5670 5674 5678 5684 5690 5697 5705 5710 5715 5721 5727 5735 5742 5749 5756 5762 5768 5774 5779 5784 5789 5794 5798 5803 5807 5812 5816 5819 5822 5825 5828 5831 5833 5835 5837 5838 5840 5841 5842 5842 5842 5842 5842 5842 5841
5638 5642 5645 5649 5654 5658 5662 5668 5675 5684 5692 5696 5702 5709 5716 5724 5732 5739 5745 5752 5758 5765 5771 5776 5781 5787 5791 5796 5801 5805 5810 5813 5817 5820 5823 5825 5828 5830 5832 5834 5835 5837 5837 5838 5838 5838 5838 5837 5837
5624 5627 5630 5635 5639 5643 5647 5653 5660 5672 5678 5683 5690 5698 5706 5714 5721 5728 5736 5743 5750 5757 5763 5768 5773 5779 5784 5789 5794 5799 5803 5807 5811 5814 5817 5820 5823 5825 5828 5830 5831 5832 5833 5834 5834 5834 5833 5833 5832
5610 5612 5616 5622 5626 5630 5633 5638 5649 5661 5664 5670 5678 5686 5694 5702 5710 5718 5726 5734 5741 5748 5754 5760 5765 5771 5777 5782 5787 5792 5797 5801 5805 5809 5812 5815 5818 5820 5823 5824 5826 5827 5828 5829 5829 5829 5829 5828 5827
5597 5599 5603 5611 5613 5617 5620 5625 5641 5645 5650 5658 5666 5674 5682 5691 5700 5708 5716 5724 5731 5738 5745 5751 5757 5763 5769 5774 5780 5785 5790 5794 5798 5802 5806 5809 5812 5815 5817 5819 5821 5822 5823 5824 5824 5824 5824 5823 5822
5586 5588 5592 5598 5602 5604 5608 5615 5629 5632 5637 5646 5655 5663 5671 5680 5689 5698 5707 5714 5722 5729 5736 5743 5749 5755 5761 5766 5772 5778 5783 5788 5792 5796 5800 5803 5806 5809 5812 5814 5816 5817 5818 5819 5819 5819 5819 5818 5817
5578 5579 5582 5587 5591 5594 5597 5605 5615 5619 5625 5633 5642 5651 5659 5669 5680 5688 5697 5705 5712 5720 5727 5734 5740 5747 5753 5758 5764 5770 5776 5780 5785 5789 5793 5797 5800 5803 5806 5808 5810 5812 5813 5813 5814 5814 5814 5813 5812
5570 5571 5573 5578 5582 5583 5587 5593 5602 5607 5614 5622 5631 5639 5649 5659 5669 5677 5686 5694 5703 5711 5718 5725 5732 5739 5745 5751 5757 5763 5769 5774 5778 5783 5787 5790 5794 5797 5800 5802 5804 5806 5807 5807 5808 5808 5808 5807 5806
5562 5563 5566 5570 5573 5574 5578 5584 5592 5598 5605 5613 5620 5629 5639 5648 5658 5667 5676 5684 5693 5702 5709 5717 5724 5731 5738 5744 5750 5756 5761 5766 5771 5775 5779 5783 5787 5790 5793 5796 5798 5800 5801 5802 5802 5802 5802 5801 5800
5557 5558 5560 5562 5565 5568 5570 5576 5585 5591 5596 5603 5612 5620 5628 5638 5648 5657 5666 5675 5683 5693 5701 5709 5716 5723 5730 5736 5741 5747 5753 5758 5764 5768 5773 5777 5780 5783 5786 5789 5791 5793 5795 5796 5796 5796 5796 5795 5794
5553 5554 5555 5556 5559 5562 5565 5567 5578 5583 5588 5596 5604 5612 5620 5629 5638 5647 5656 5665 5674 5684 5692 5700 5707 5714 5721 5727 5734 5740 5747 5752 5757 5761 5766 5770 5773 5777 5780 5782 5785 5786 5788 5789 5790 5790 5789 5789 5788
5548 5549 5550 5552 5554 5557 5560 5562 5571 5576 5582 5589 5597 5605 5613 5621 5629 5638 5647 5656 5665 5674 5682 5691 5698 5705 5712 5719 5726 5733 5739 5745 5749 5754 5758 5762 5766 5769 5772 5775 5778 5780 5781 5782 5783 5783 5783 5782 5781
5545 5546 5547 5548 5549 5553 5557 5558 5565 5572 5578 5585 5591 5597 5604 5612 5620 5628 5637 5646 5655 5663 5672 5680 5688 5697 5704 5711 5718 5725 5731 5737 5742 5747 5751 5755 5759 5762 5765 5768 5770 5772 5774 5775 5776 5776 5776 5775 5774
5543 5543 5544 5544 5546 5550 5553 5555 5562 5569 5573 5578 5583 5589 5596 5603 5611 5619 5627 5637 5646 5654 5663 5671 5680 5688 5696 5704 5711 5718 5724 5729 5734 5739 5744 5748 5752 5755 5758 5761 5763 5765 5767 5768 5768 5769 5769 5768 5767
5541 5541 5542 5542 5543 5546 5549 5552 5559 5563 5567 5571 5576 5582 5587 5595 5602 5610 5618 5627 5636 5645 5654 5663 5672 5680 5688 5696 5703 5710 5715 5721 5727 5732 5736 5740 5744 5747 5750 5753 5755 5757 5759 5760 5761 5761 5761 5761 5760
5537 5538 5539 5540 5540 5542 5545 5549 5554 5558 5562 5566 5570 5574 5579 5586 5594 5602 5610 5618 5627 5636 5645 5654 5664 5671 5679 5688 5695 5701 5707 5713 5719 5724 5728 5733 5736 5739 5742 5745 5748 5750 5751 5752 5753 5754 5754 5753 5752
5535 5535 5536 5536 5537 5538 5541 5545 5550 5553 5556 5560 5563 5567 5573 5579 5586 5593 5601 5609 5618 5628 5637 5645 5654 5663 5671 5678 5686 5693 5699 5705 5711 5715 5720 5725 5729 5732 5735 5738 5740 5742 5744 5745 5746 5746 5746 5746 5745
5532 5532 5532 5532 5534 5535 5537 5544 5545 5547 5550 5553 5557 5561 5565 5571 5578 5585 5593 5601 5609 5618 5627 5636 5645 5654 5661 5669 5677 5684 5691 5697 5702 5707 5712 5716 5720 5724 5727 5730 5732 5734 5736 5737 5738 5739 5739 5738 5738
5527 5527 5528 5529 5530 5530 5531 5539 5540 5542 5544 5547 5551 5554 5558 5564 5570 5577 5584 5592 5600 5609 5619 5627 5636 5645 5653 5661 5668 5675 5682 5688 5693 5699 5704 5708 5712 5716 5719 5722 5725 5727 5728 5729 5730 5731 5731 5731 5730